Location: Peebles
(55.6412°N, 3.1714°W)
Time: 13:28:20
(UTC+00:00)

RS-15 - Pass Details

Date: 02 December 2023
Orbit: 1893 x 2151 km, 64.8° (Epoch: 02 March)

Event Time Altitude Azimuth Distance (km) Brightness Sun altitude
Exits shadow 06:29:46 13° 311° (NW) 4,183 9.2 -14.2°
Maximum altitude 06:39:17 46° 246° (WSW) 2,477 8.3 -12.9°
Drops below altitude 10° 06:49:26 10° 178° (S) 4,293 10.2 -11.6°
Sets 06:52:48 0° 172° (S) 5,273 10.7 -11.1°
